Weather in Tereben

Russia / Kaluga Oblast     53°25′43″N   35°15′54″E
temp.,
°C
wind,
m/s
gust,
m/s
humid.,
%
clouds,
%
prec.,
mm/h
press.,
hPa
HPBL,
m
25 july, sun
sun2500:00+14ne117582 0.0 101812
03:00+13nne117724 0.0 101910
06:00+12ne22805 0.0 102053
09:00+20ene12515 0.0 1020452
12:00+24ne12365 0.0 10201947
15:00+25nw123564 0.0 10202608
18:00+24se114669 0.0 1020761
21:00+18e2563100 0.0 102193
26 july, mon
mon2600:00+17ese255767 0.0 102296
03:00+17ese235895 0.0 102368
06:00+16ese236785 0.0 102371
09:00+21se236081 0.0 1023316
12:00+26sse334015 0.0 10231824
15:00+26s334129 0.0 10221695
18:00+22se125799 0.0 102239
21:00+19sse227060 0.0 102333
27 july, tue
tue2700:00+16s22800 0.0 102325
03:00+15sse11880 0.0 102310
06:00+16se12845 0.0 102332
09:00+23sse235572 0.0 1023497
12:00+26s2245100 0.0 10221390
15:00+28ssw3339100 0.0 10202770
18:00+25s255868 0.0 1020230
21:00+21sse226895 0.0 101936
28 july, wed
wed2800:00+18se237598 0.0 101955
03:00+19s2971100 0.0 1018212
06:00+19sse3116899 0.0 1017340
09:00+19se2871100 0.0 1016308
12:00+18s41384100 0.2 1016817
15:00+21s6117395 0.7 10141236
18:00+21ssw598287 0.3 1012806
21:00+18s31098100 1.6 1010354
29 july, thu
thu2900:00+18sw399929 0.1 1010265
03:00+17w399924 0.1 1009243
06:00+17wsw399815 0.0 1009283
09:00+22wnw487511 0.0 1008740
12:00+26wnw4650100 0.0 10081838
15:00+27w464285 0.0 10072193
18:00+25nw455299 0.0 1006691
21:00+20nw387271 0.0 1007264